#timestamp,LO_Frequency,Hit,StdDev 
1632996015.9,286047001.2,P
1632996035.7,286047000.4,N
1632996055.6,286047000.5,N
1632996075.4,286046999.7,N
1632996095.2,286047001.2,N
1632996115.1,286047000.3,N
1632996116.0,286047000.3,N
1632996135.8,286047000.5,N
1632996155.7,286047000.4,N
1632996175.5,286047001.1,N
1632996195.3,286047001.0,N
1632996215.2,286047001.1,N
1632996235.0,286047000.0,N
1632996235.9,286047000.0,N
1632996255.8,286047001.0,N
1632996275.6,286047000.0,N
1632996295.4,286047000.2,N
1632996315.3,286047000.1,N
1632996335.1,286047000.9,N
1632996355.9,286047000.0,N
1632996375.7,286046999.9,N
1632996395.5,286047001.4,N
1632996415.4,286047002.8,Y
1632996435.2,286046999.7,P
1632996455.1,286046998.1,P
1632996456.0,286046998.1,N
1632996475.8,286046998.6,N
1632996495.6,286046998.1,N
1632996515.5,286047002.5,N
1632996535.3,286047001.6,N
1632996555.1,286047004.1,N
1632996575.9,286047001.9,N
1632996595.7,286047002.5,N
1632996615.6,286047002.2,N
1632996635.4,286047002.8,N
1632996655.2,286047002.0,N
1632996675.1,286047000.1,N
1632996676.0,286047000.1,N
1632996695.8,286046999.8,N
1632996715.6,286047002.2,N
1632996735.5,286047002.4,N
1632996755.3,286047002.3,N
1632996775.2,286047001.9,N
1632996795.9,286047002.3,N
1632996815.7,286047002.0,N
1632996835.6,286047004.1,N
1632996855.4,286047002.0,N
1632996875.2,286047000.7,N
1632996895.1,286046998.5,N
1632996896.0,286046998.5,N
1632996915.8,286047001.0,N
1632996935.7,286046998.5,N
1632996955.5,286046998.4,N
1632996975.3,286046998.3,N
1632996995.2,286046999.6,N
1632997015.0,286046996.6,N
1632997015.9,286046996.6,N
1632997035.8,286046995.3,N
1632997055.6,286046997.8,N
1632997075.4,286046997.5,N
1632997095.3,286046996.8,N
1632997115.1,286046997.2,N
1632997135.8,286046997.8,N
1632997155.7,286046997.6,N
1632997175.5,286046997.2,N
1632997195.4,286046999.6,N
1632997215.2,286046999.4,N
1632997235.0,286046998.9,N
1632997235.9,286046998.9,N
1632997255.8,286046999.0,N
1632997275.6,286046997.1,N
1632997295.5,286046998.0,N
1632997315.3,286046996.8,N
1632997335.1,286046997.4,N
1632997355.9,286046999.0,N
1632997375.7,286046998.6,N
1632997395.5,286046998.9,N
1632997415.4,286046998.8,N
1632997435.2,286046999.5,N
1632997455.1,286047000.8,N
1632997456.0,286047000.8,N
1632997475.8,286046999.7,N
1632997495.6,286047001.6,N
1632997515.5,286047001.6,N
1632997535.3,286046999.8,N
1632997555.1,286047000.6,N
1632997575.9,286047000.5,N
1632997595.7,286047000.5,N
1632997615.6,286046999.7,N
1632997635.4,286047002.6,N
1632997655.2,286047000.5,N
1632997675.1,286046998.2,N
1632997676.0,286046998.2,N
1632997695.8,286047001.1,N
1632997715.7,286047002.1,N
1632997735.5,286047000.7,N
1632997755.3,286046998.3,N
1632997775.2,286046999.0,N
1632997795.0,286047001.2,N
1632997795.9,286047001.2,N
1632997815.7,286046999.9,N
1632997835.6,286047000.2,N
1632997855.4,286047002.6,N
1632997875.3,286047001.1,N
1632997895.1,286046998.1,N
1632997915.8,286046998.6,N
1632997935.7,286046998.1,N
1632997955.5,286046998.4,N
1632997975.4,286046999.3,N
1632997995.2,286046996.6,N
1632998015.1,286046997.3,N
1632998016.0,286046997.3,N
1632998035.8,286046997.7,N
1632998055.7,286046998.9,N
1632998075.5,286046999.3,N
1632998095.4,286046999.3,N
1632998115.2,286046998.3,N
1632998135.0,286046998.6,N
1632998135.9,286046998.6,N
1632998155.8,286046999.5,N
1632998175.6,286046999.4,N
1632998195.4,286046999.6,N
1632998215.3,286046999.2,N
1632998235.1,286046997.7,N
1632998255.9,286046997.6,N
1632998275.7,286046995.0,Y
1632998295.5,286046996.8,P
1632998315.4,286046997.1,N
1632998335.2,286046996.6,P
1632998355.0,286046999.6,N
1632998356.0,286046999.6,N
1632998375.8,286046999.1,N
1632998395.6,286047000.2,N
1632998415.5,286047000.5,N
1632998435.3,286047000.4,N
1632998455.1,286047002.1,N
1632998475.9,286047003.2,N
1632998495.7,286047001.4,N
1632998515.6,286047002.6,N
1632998535.4,286046999.8,N
1632998555.2,286047002.7,N
1632998575.1,286047002.8,N
1632998576.0,286047002.8,N
1632998595.8,286046998.1,N
1632998615.6,286046998.5,N
1632998635.5,286046998.4,N
1632998655.3,286047001.0,N
1632998675.2,286047000.3,N
1632998695.9,286047000.8,N
1632998715.7,286047000.7,N
1632998735.6,286046999.0,N
1632998755.4,286046998.2,N
1632998775.2,286046998.4,N
1632998795.1,286046998.6,N
1632998796.0,286046998.6,N
1632998815.8,286046998.5,N
1632998835.7,286046998.1,N
1632998855.5,286046998.6,N
1632998875.3,286046998.7,N
1632998895.2,286046998.4,N
1632998915.0,286046998.5,N
1632998915.9,286046998.5,N
1632998935.8,286046999.3,N
1632998955.6,286046998.8,N
1632998975.4,286046998.3,N
1632998995.3,286047001.0,N
1632999015.1,286047000.7,N
1632999035.9,286046999.9,N
1632999055.7,286046999.7,N
1632999075.6,286047001.0,N
1632999095.4,286047000.8,N
1632999115.2,286047000.5,N
1632999135.1,286047000.0,N
1632999136.0,286047000.0,N
1632999155.8,286047000.8,N
1632999175.6,286046998.8,N
1632999195.5,286046998.2,N
1632999215.3,286047000.4,N
1632999235.2,286047002.1,N
1632999255.9,286047004.2,Y
1632999275.7,286047002.1,P
1632999295.6,286047006.0,P
1632999315.4,286047004.0,N
1632999335.2,286047002.7,N
1632999355.1,286047002.3,N
1632999356.0,286047002.3,N
1632999375.8,286047002.0,N
1632999395.7,286047004.0,N
1632999415.5,286047004.2,N
1632999435.3,286047003.8,N
1632999455.2,286047003.1,N
1632999475.0,286047004.1,N
1632999475.9,286047004.1,N
1632999495.8,286047001.8,N
1632999515.6,286047004.4,N
1632999535.4,286047003.4,N
1632999555.3,286047005.6,Y
1632999575.1,286047002.3,P
1632999595.8,286047000.3,N
